Weather History for Istanbul, Turkey

Change the Weather History Date:

Wednesday, December 14, 2011

  Actual Average Record
Temperature  
Mean Temperature 54 °F -  
Max Temperature 57 °F 48 °F 59 °F (2008)
Min Temperature 50 °F 39 °F 29 °F (2012)
Degree Days  
Heating Degree Days 12    
Growing Degree Days 4 (Base 50)    
Moisture  
Dew Point 46 °F    
Average Humidity 76    
Maximum Humidity 94    
Minimum Humidity 60    
Precipitation  
Precipitation 0.00 in - - ()
Sea Level Pressure  
Sea Level Pressure 30.17 in    
Wind  
Wind Speed 3 mph ()    
Max Wind Speed 8 mph    
Max Gust Speed -    
Visibility 6.2 miles    
Events Rain    
Averages and records for this station are not official NWS values.
T = Trace of Precipitation, MM = Missing Value Source: Averaged Metar Reports

Daily Weather History Graph

Daily Weather History Graph

Search for Another Location

Airport:

Trip Planner

Search our weather history database for the weather conditions in past years. The results will help you decide how hot, cold, wet, or windy it might be!

Date:

Astronomy

Dec. 14, 2011 Rise Set
Actual Time 7:21 AM EET 4:36 PM EET
Civil Twilight 6:50 AM EET 5:08 PM EET
Nautical Twilight 6:15 AM EET 5:42 PM EET
Astronomical Twilight 5:42 AM EET 6:16 PM EET
Moon 8:36 PM EET (12/14) 9:54 AM EET (12/14)
Length of Visible Light 10h 17m
Length of Day
9h 15m
Waning Gibbous, 86% of the Moon is Illuminated
Dec 14
Waning Gibbous
Dec 18
Last Quarter
Dec 24
New
Jan 1
First Quarter
Jan 9
Full

Hourly Weather History & Observations

Time (EET) Temp. Dew Point Humidity Pressure Visibility Wind Dir Wind Speed Gust Speed Precip Events Conditions
12:20 AM 55.4 °F 44.6 °F 67% 30.15 in 6.2 mi Variable 2.3 mph - N/A   Scattered Clouds
12:50 AM 53.6 °F 44.6 °F 72% 30.12 in 6.2 mi Variable 2.3 mph - N/A   Scattered Clouds
1:20 AM 53.6 °F 44.6 °F 72% 30.15 in 6.2 mi Variable 1.2 mph - N/A   Scattered Clouds
1:50 AM 53.6 °F 44.6 °F 72% 30.15 in 6.2 mi Variable 1.2 mph - N/A   Scattered Clouds
2:00 AM 54 °F 44 °F 60% 30.16 in 6 mi South 1.2 mph - -   Partly Cloudy
2:20 AM 53.6 °F 44.6 °F 72% 30.15 in 6.2 mi SW 3.5 mph - N/A   Scattered Clouds
2:50 AM 51.8 °F 44.6 °F 76% 30.15 in 6.2 mi SW 3.5 mph - N/A   Scattered Clouds
3:20 AM 51.8 °F 44.6 °F 76% 30.15 in 6.2 mi Variable 2.3 mph - N/A   Scattered Clouds
3:50 AM 53.6 °F 44.6 °F 72% 30.15 in 6.2 mi Variable 2.3 mph - N/A   Scattered Clouds
4:20 AM 53.6 °F 44.6 °F 72% 30.15 in 6.2 mi Variable 2.3 mph - N/A   Scattered Clouds
4:50 AM 53.6 °F 44.6 °F 72% 30.15 in 6.2 mi SW 3.5 mph - N/A   Scattered Clouds
5:20 AM 53.6 °F 46.4 °F 77% 30.15 in 6.2 mi SW 4.6 mph - N/A   Scattered Clouds
5:50 AM 53.6 °F 48.2 °F 82% 30.15 in 6.2 mi WSW 3.5 mph - N/A Rain Light Rain Showers
6:50 AM 51.8 °F 50.0 °F 94% 30.15 in 6.2 mi Variable 2.3 mph - N/A   Mostly Cloudy
7:20 AM 53.6 °F 50.0 °F 88% 30.15 in 6.2 mi SW 4.6 mph - N/A   Mostly Cloudy
7:50 AM 53.6 °F 50.0 °F 88% 30.15 in 6.2 mi SSW 5.8 mph - N/A   Mostly Cloudy
8:00 AM 53 °F 50 °F 84% 30.18 in 6 mi SSW 5.8 mph - -   Partly Cloudy
8:20 AM 53.6 °F 48.2 °F 82% 30.18 in 6.2 mi SSW 8.1 mph - N/A   Scattered Clouds
8:50 AM 53.6 °F 48.2 °F 82% 30.18 in 6.2 mi SSW 4.6 mph - N/A   Scattered Clouds
9:20 AM 53.6 °F 48.2 °F 82% 30.18 in 6.2 mi SW 4.6 mph - N/A   Scattered Clouds
9:50 AM 53.6 °F 48.2 °F 82% 30.18 in 6.2 mi SW 3.5 mph - N/A   Scattered Clouds
10:20 AM 55.4 °F 50.0 °F 82% 30.18 in 6.2 mi Variable 2.3 mph - N/A   Scattered Clouds
10:50 AM 55.4 °F 48.2 °F 77% 30.18 in 6.2 mi Variable 2.3 mph - N/A   Scattered Clouds
11:20 AM 55.4 °F 48.2 °F 77% 30.18 in 6.2 mi Variable 2.3 mph - N/A   Mostly Cloudy
11:50 AM 57.2 °F 48.2 °F 72% 30.18 in 6.2 mi Variable 3.5 mph - N/A   Scattered Clouds
12:20 PM 55.4 °F 46.4 °F 72% 30.18 in 6.2 mi SSW 3.5 mph - N/A   Mostly Cloudy
12:50 PM 55.4 °F 46.4 °F 72% 30.15 in 6.2 mi WSW 3.5 mph - N/A   Mostly Cloudy
1:20 PM 55.4 °F 44.6 °F 67% 30.15 in 6.2 mi WSW 4.6 mph - N/A   Mostly Cloudy
1:50 PM 55.4 °F 44.6 °F 67% 30.15 in 6.2 mi SW 4.6 mph - N/A   Mostly Cloudy
2:00 PM 54 °F 45 °F 64% 30.18 in 6 mi SW 4.6 mph - -   Partly Cloudy
2:20 PM 53.6 °F 44.6 °F 72% 30.15 in 6.2 mi WSW 5.8 mph - N/A   Mostly Cloudy
2:50 PM 53.6 °F 44.6 °F 72% 30.15 in 6.2 mi SW 4.6 mph - N/A   Scattered Clouds
3:20 PM 53.6 °F 44.6 °F 72% 30.15 in 6.2 mi West 4.6 mph - N/A   Partly Cloudy
3:50 PM 53.6 °F 44.6 °F 72% 30.18 in - Variable 2.3 mph - N/A   Clear
4:20 PM 53.6 °F 44.6 °F 72% 30.18 in - Variable 2.3 mph - N/A   Clear
4:50 PM 53.6 °F 46.4 °F 77% 30.18 in - West 3.5 mph - N/A   Clear
5:20 PM 53.6 °F 44.6 °F 72% 30.18 in - Variable 2.3 mph - N/A   Clear
5:50 PM 51.8 °F 46.4 °F 82% 30.18 in - Variable 2.3 mph - N/A   Clear
6:20 PM 51.8 °F 46.4 °F 82% 30.18 in - Variable 1.2 mph - N/A   Clear
6:50 PM 50.0 °F 44.6 °F 82% 30.18 in - Calm Calm - N/A   Clear
7:20 PM 53.6 °F 44.6 °F 72% 30.18 in - Variable 1.2 mph - N/A   Clear
7:50 PM 51.8 °F 44.6 °F 76% 30.18 in - Calm Calm - N/A   Clear
8:00 PM 52 °F 44 °F 66% 30.20 in 6 mi Calm Calm - -  
8:20 PM 51.8 °F 44.6 °F 76% 30.18 in - Variable 1.2 mph - N/A   Clear
8:50 PM 51.8 °F 44.6 °F 76% 30.21 in - Variable 2.3 mph - N/A   Clear
9:20 PM 53.6 °F 44.6 °F 72% 30.18 in - Variable 2.3 mph - N/A   Clear
9:50 PM 50.0 °F 44.6 °F 82% 30.21 in - Calm Calm - N/A   Clear
10:20 PM 50.0 °F 44.6 °F 82% 30.18 in - Variable 2.3 mph - N/A   Clear
10:50 PM 53.6 °F 44.6 °F 72% 30.18 in - Variable 3.5 mph - N/A   Clear
11:20 PM 50.0 °F 42.8 °F 76% 30.18 in - Variable 1.2 mph - N/A   Clear
11:50 PM 50.0 °F 44.6 °F 82% 30.18 in - Calm Calm - N/A   Clear